Epoch 2002 Oct. 13.0 TT = JDT 2452560.5 T 2002 Sept. 23.06657 TT Muraoka q 1.8074317 (2000.0) P Q n 0.07922050 Peri. 163.05102 +0.96707689 +0.25414242 a 5.3692175 Node 182.34965 -0.25435649 +0.96364936 e 0.6633715 Incl. 18.76453 -0.00806685 +0.08241079 P 12.44 From 26 observations 1977-1989, mean residual 1".00.
H = 15.5 G = 0.15 [ ,-140] ( 〜2002年 5月 6日) m1 = 4.0 + 5 logΔ + 40 log r [-140, 0] (2002年 5月 6日〜2002年 9月23日) m1 = 8.5 + 5 logΔ + 22.5 log r [ 0, 210] (2002年 9月23日〜2003年 4月21日) H = 15.5 G = 0.15 [ 210, ] (2003年 4月21日〜 )